Location: *
(42.3442°N, 9.2072°E)
Time: 03:23:56
(UTC+00:00)

Cosmos 1174 - Pass Details

Date: 09 April 2020
Orbit: 371 x 1148 km, 66.1° (Epoch: 29 May)

Event Time Altitude Azimuth Distance (km) Brightness Sun altitude
Rises 19:55:54 0° 333° (NNW) 2,697 8.4 -20.8°
Reaches altitude 10° 19:57:55 10° 338° (NNW) 1,905 7.3 -21.1°
Maximum altitude 20:02:09 54° 57° (ENE) 826 4.5 -21.8°
Enters shadow 20:02:46 50° 86° (E) 884 4.5 -21.9°
